Regional Weather Roundup
Issued by NWS Green Bay, WI

Home | Current Version | Previous Version | Graphics & Text | Print | Product List | Glossary Off
Versions: 1 2 3 4 5 6 7 8 9 10 11 12 13 14 15 16 17 18 19 20 21 22 23 24 25 26 27 28 29 30 31 32 33 34 35 36 37 38 39 40 41 42 43 44 45 46 47 48 49 50

000
ASUS43 KGRB 061800
RWRGRB

NORTH-CENTRAL AND NORTHEAST WISCONSIN REGIONAL WEATHER ROUNDUP
NATIONAL WEATHER SERVICE GREEN BAY WI
1200 PM CST TUE DEC 06 2016

WIZ005-009-010>012-018-019-061900-
NORTH CENTRAL WISCONSIN

CITY           SKY/WX    TMP DP  RH WIND       PRES   REMARKS
IRONWOOD       FLURRIES  31  28  89 SW16G22   29.56F
MANITOWISH WTR NOT AVBL
ARBOR VITAE    NOT AVBL
EAGLE RIVER    NOT AVBL
LAND O LAKES   NOT AVBL
RHINELANDER    SNOW      31  30  96 S9        29.60F VSB 1/2
PHILLIPS       CLOUDY    28  24  87 SW15G22   29.60S
ANTIGO         NOT AVBL
TOMAHAWK       NOT AVBL
MERRILL        LGT SNOW  31  30  97 S6        29.64F
$$

WIZ013-073-061900-
NORTHEAST WISCONSIN

CITY           SKY/WX    TMP DP  RH WIND       PRES   REMARKS
IRON MOUNTAIN  CLOUDY    37  30  75 S15G22    29.62F
MARINETTE      CLOUDY    39  31  72 S13G22    29.68F
$$

WIZ017-030-035>037-045-061900-
CENTRAL WISCONSIN

CITY           SKY/WX    TMP DP  RH WIND       PRES   REMARKS
MEDFORD        NOT AVBL
WAUSAU         LGT SNOW  31  30  96 S12       29.64F VSB 3/4
MOSINEE        LGT SNOW  30  30 100 S9        29.66F
MARSHFIELD     CLOUDY    29  24  82 W17G24    29.66S
WISC RAPIDS    LGT SNOW  32  31  96 W12       29.70F FOG
STEVENS POINT  NOT AVBL
WAUPACA        NOT AVBL
SHAWANO        CLOUDY    37  32  82 S6        29.68F
CLINTONVILLE   CLOUDY    34  30  86 SW12      29.69F
WAUTOMA        LGT SNOW  33  31  92 S7        29.71F FOG
$$

WIZ038-039-048-051-061900-
FOX VALLEY

CITY           SKY/WX    TMP DP  RH WIND       PRES   REMARKS
NWS GREEN BAY  CLOUDY    38  35  89 SW9       29.69F FOG
APPLETON       PTSUNNY   34  32  93 SW9       29.68F
OSHKOSH        CLOUDY    34  31  88 SW10      29.71S FOG
FOND DU LAC    CLOUDY    34  30  85 SW9       29.72F
$$

WIZ022-050-052-061900-
EAST CENTRAL WISCONSIN

CITY           SKY/WX    TMP DP  RH WIND       PRES   REMARKS
EPHRAIM        NOT AVBL
WASHINGTON ISL NOT AVBL
STURGEON BAY   CLOUDY    38  32  79 SE17      29.68F
MANITOWOC      NOT AVBL
SHEBOYGAN      CLOUDY    40  34  79 S13       29.70F
$$

LMZ563-521-522-541>543-061900-
LAKESHORE

STATION/POSITION TIME  TEMP    WIND        PRES    VSBY  WAVE
                       AIR SEA DIR/SP/G                  HT/PER
                 (UTC) (F)     (DEG/KT/KT) (MB)    (MI)  (FT/S)
SHEBOYGAN LKSHOR 1700   39     160/ 15/ 16 1007.2F
KEWAUNEE LKSHORE 1718   38     170/ 20/ 23 1006.4
ALGOMA MARINA    1721          200/ 22/ 26   N/A
SISTER BAY LKSHO 1723   39     180/ 15/ 18   N/A
MENOMINEE LKSHOR 1718   39     160/ 18/ 22 1005.2
$$




USA.gov is the U.S. government's official web portal to all federal, state and local government web resources and services.